Regional Weather Roundup
Issued by NWS Little Rock, AR

Home | Current Version | Previous Version | Text Only | Print | Product List | Glossary Off
Versions: 1 2 3 4 5 6 7 8 9 10 11 12 13 14 15 16 17 18 19 20 21 22 23 24 25 26 27 28 29 30 31 32 33 34 35 36 37

000
ASUS44 KLZK 220805
RWRLZK

WEATHER ROUNDUP FOR ARKANSAS
NATIONAL WEATHER SERVICE LITTLE ROCK AR
300 AM CDT WED OCT 22 2014

NOTE: "FAIR" INDICATES FEW OR NO CLOUDS BELOW 12,000 FEET WITH NO
SIGNIFICANT WEATHER AND/OR OBSTRUCTIONS TO VISIBILITY.

ARZ001-003-010-029-220900-
NORTHWEST ARKANSAS

CITY           SKY/WX    TMP DP  RH WIND       PRES   REMARKS
FAYETTEVILLE   PTCLDY    47  47 100 CALM      30.14S FOG
FORT SMITH     CLEAR     58  56  93 NE6       30.11R
HARRISON       CLEAR     48  47  96 SE5       30.16R
BENTONVILLE    PTCLDY    55  48  76 SE5       30.13S
ROGERS         CLEAR     56  51  84 E8        30.14S
SILOAM SPGS    MOCLDY    55  48  76 E5        30.14R
HIGHFILL       CLEAR     53  51  93 CALM      30.13R FOG
$$

ARZ004-005-016-220900-
NORTH CENTRAL ARKANSAS

CITY           SKY/WX    TMP DP  RH WIND       PRES   REMARKS
BATESVILLE     CLEAR     48  46  93 CALM      30.16R
FLIPPIN        CLEAR     48  43  81 CALM      30.16S
MTN HOME       CLEAR     51  46  83 E5        30.16R
$$

ARZ040-041-220900-
WEST CENTRAL ARKANSAS

CITY           SKY/WX    TMP DP  RH WIND       PRES   REMARKS
MENA             N/A     54  54 100 CALM      30.14R VSB 1/2
MOUNT IDA      FOG       52  50  93 CALM      30.11S VSB 1/2
$$

ARZ009-017-025-026-028-220900-
NORTHEAST ARKANSAS

CITY           SKY/WX    TMP DP  RH WIND       PRES   REMARKS
CORNING        FAIR      48  46  93 NE9       30.18S FOG
JONESBORO      CLEAR     53  47  79 NE9       30.15S
NEWPORT        CLEAR     50  47  89 N6        30.17R
WALNUT RIDGE   CLEAR     50  37  62 N7        30.15S
BLYTHEVILLE    CLEAR     49  46  90 NE6       30.16R
$$

ARZ022-023-033-042-044-220900-
CENTRAL ARKANSAS

CITY           SKY/WX    TMP DP  RH WIND       PRES   REMARKS
LITTLE ROCK    CLEAR     54  49  83 CALM      30.14R
N LITTLE ROCK    N/A     58  50  73 NE6       30.14R
JACKSONVILLE   CLEAR     48  46  91 W5        30.14R
SEARCY         CLEAR     52  47  83 N3        30.16R
HOT SPRINGS    CLEAR     53  51  93 CALM      30.13R
RUSSELLVILLE   CLEAR     51  50  96 CALM      30.13R
$$

ARZ036-220900-
EAST ARKANSAS

CITY           SKY/WX    TMP DP  RH WIND       PRES   REMARKS
WEST MEMPHIS   CLEAR     52  49  89 NE5       30.13R
$$

ARZ050-053-066-070-073-220900-
SOUTHWEST ARKANSAS

CITY           SKY/WX    TMP DP  RH WIND       PRES   REMARKS
ARKADELPHIA    FAIR      54  54 100 CALM      30.12S FOG
CAMDEN         FOG       50  48  93 CALM      30.11R VSB 3/4
TEXARKANA      PTCLDY    59  59 100 E3        30.09S FOG
EL DORADO      CLEAR     54  52  93 CALM      30.10S
DE QUEEN       FOG       60  60 100 E5        30.08S VSB 1
$$

ARZ056-057-069-220900-
SOUTHEAST ARKANSAS

CITY           SKY/WX    TMP DP  RH WIND       PRES   REMARKS
PINE BLUFF     CLEAR     51  48  89 CALM      30.12R
STUTTGART      CLEAR     52  46  82 NE7       30.13R
MONTICELLO     CLEAR     51  49  92 CALM      30.10S

$$





USA.gov is the U.S. government's official web portal to all federal, state and local government web resources and services.